TimeEDT,TemperatureF,Dew PointF,Humidity,Sea Level PressureIn,VisibilityMPH,Wind Direction,Wind SpeedMPH,Gust SpeedMPH,PrecipitationIn,Events,Conditions,WindDirDegrees,DateUTC
12:53 AM,33.1,30.9,92,29.78,7.0,SSW,4.6,-,0.00,,Overcast,200,2013-03-26 04:53:00
1:53 AM,34.0,30.9,89,29.79,7.0,Calm,Calm,-,0.01,,Overcast,0,2013-03-26 05:53:00
2:53 AM,34.0,32.0,92,29.81,4.0,WNW,3.5,-,0.00,,Overcast,300,2013-03-26 06:53:00
3:53 AM,34.0,32.0,92,29.81,4.0,NW,4.6,-,0.00,,Overcast,310,2013-03-26 07:53:00
4:53 AM,35.1,32.0,89,29.83,10.0,NW,4.6,-,N/A,,Overcast,310,2013-03-26 08:53:00
5:27 AM,33.8,30.2,87,29.82,10.0,NW,4.6,-,N/A,,Overcast,310,2013-03-26 09:27:00
5:53 AM,34.0,30.9,89,29.86,10.0,Variable,3.5,-,N/A,,Overcast,0,2013-03-26 09:53:00
6:53 AM,34.0,30.0,85,29.89,10.0,NW,6.9,-,N/A,,Overcast,320,2013-03-26 10:53:00
7:53 AM,34.0,28.9,82,29.92,10.0,WNW,3.5,-,N/A,,Overcast,300,2013-03-26 11:53:00
8:53 AM,35.1,28.9,78,29.94,10.0,West,3.5,-,N/A,,Overcast,270,2013-03-26 12:53:00
9:25 AM,35.6,30.2,81,29.92,1.8,Calm,Calm,-,0.00,Snow,Light Snow,0,2013-03-26 13:25:00
9:37 AM,35.6,28.4,75,29.92,3.0,Calm,Calm,-,0.00,Snow,Light Snow,0,2013-03-26 13:37:00
9:53 AM,35.1,30.0,82,29.96,9.0,Calm,Calm,-,0.00,,Overcast,0,2013-03-26 13:53:00
10:53 AM,37.9,30.0,73,29.97,10.0,NW,3.5,-,N/A,,Overcast,310,2013-03-26 14:53:00
11:37 AM,39.2,28.4,65,29.95,10.0,NW,6.9,-,N/A,,Overcast,310,2013-03-26 15:37:00
11:53 AM,39.9,28.9,65,29.98,10.0,NNW,5.8,-,N/A,,Overcast,330,2013-03-26 15:53:00
12:02 PM,39.2,28.4,65,29.95,10.0,NNW,5.8,-,N/A,,Overcast,330,2013-03-26 16:02:00
12:21 PM,39.2,28.4,65,29.95,10.0,North,10.4,-,N/A,,Overcast,350,2013-03-26 16:21:00
12:35 PM,39.2,28.4,65,29.96,10.0,Variable,4.6,-,N/A,,Overcast,0,2013-03-26 16:35:00
12:53 PM,39.9,28.9,65,29.99,10.0,NNW,3.5,-,N/A,,Overcast,340,2013-03-26 16:53:00
2:53 PM,43.0,27.0,53,29.97,10.0,NW,5.8,-,N/A,,Overcast,320,2013-03-26 18:53:00
3:53 PM,41.0,28.9,62,29.97,9.0,West,6.9,-,0.00,,Unknown,270,2013-03-26 19:53:00
4:53 PM,43.0,28.9,58,29.98,10.0,NW,4.6,-,N/A,,Overcast,310,2013-03-26 20:53:00
5:53 PM,39.0,30.9,73,30.01,10.0,West,10.4,-,0.01,Rain,Light Rain Showers,280,2013-03-26 21:53:00
6:53 PM,39.9,28.9,65,30.03,10.0,NW,6.9,18.4,0.00,,Overcast,310,2013-03-26 22:53:00
7:53 PM,39.0,28.9,67,30.05,10.0,NW,4.6,-,N/A,,Overcast,310,2013-03-26 23:53:00
8:53 PM,39.0,28.0,65,30.07,10.0,West,3.5,-,N/A,,Overcast,280,2013-03-27 00:53:00
9:19 PM,37.4,30.2,75,30.05,10.0,West,9.2,-,N/A,,Overcast,280,2013-03-27 01:19:00
9:29 PM,37.4,30.2,75,30.06,10.0,West,6.9,-,N/A,,Overcast,280,2013-03-27 01:29:00
9:53 PM,36.0,30.0,79,30.10,10.0,West,4.6,-,N/A,,Overcast,280,2013-03-27 01:53:00
10:28 PM,35.6,30.2,81,30.08,10.0,West,3.5,-,N/A,,Overcast,260,2013-03-27 02:28:00
10:35 PM,35.6,30.2,81,30.08,10.0,Calm,Calm,-,N/A,,Overcast,0,2013-03-27 02:35:00
10:42 PM,35.6,30.2,81,30.08,10.0,Calm,Calm,-,N/A,,Overcast,0,2013-03-27 02:42:00
10:53 PM,36.0,30.9,82,30.11,10.0,Calm,Calm,-,N/A,,Overcast,0,2013-03-27 02:53:00
11:01 PM,35.6,30.2,81,30.08,10.0,WSW,4.6,-,N/A,,Overcast,250,2013-03-27 03:01:00
11:53 PM,35.1,30.9,85,30.11,10.0,SW,4.6,-,N/A,,Overcast,220,2013-03-27 03:53:00